Weather History for Billings, MT

Change the Weather History Date:

Saturday, March 10, 2012

  Actual Average Record
Temperature  
Mean Temperature 54 °F 36 °F  
Max Temperature 70 °F 47 °F 71 °F (1972)
Min Temperature 38 °F 25 °F -15 °F (1948)
Degree Days  
Heating Degree Days 11 29  
Month to date heating degree days 230 301  
Since 1 July heating degree days 4738 5266  
Cooling Degree Days 0 0  
Month to date cooling degree days 0 0  
Year to date cooling degree days 0 0  
Growing Degree Days 4 (Base 50)    
Moisture  
Dew Point 14 °F    
Average Humidity 25    
Maximum Humidity 40    
Minimum Humidity 9    
Precipitation  
Precipitation 0.00 in 0.03 in 0.30 in (2014)
Month to date precipitation 0.10 0.26  
Year to date precipitation 0.95 1.22  
Snow  
Snow 0.00 in 0.30 in 1.80 in (1950)
Month to date snowfall 1.2 3.1  
Since 1 July snowfall 30.0 37.6  
Snow Depth 0.00 in    
Sea Level Pressure  
Sea Level Pressure 29.76 in    
Wind  
Wind Speed 13 mph (WSW)    
Max Wind Speed 22 mph    
Max Gust Speed 28 mph    
Visibility 10 miles    
Events      
T = Trace of Precipitation, MM = Missing Value Source: NWS Daily Summary

Daily Weather History Graph

Daily Weather History Graph

Search for Another Location

Airport:

Trip Planner

Search our weather history database for the weather conditions in past years. The results will help you decide how hot, cold, wet, or windy it might be!

Date:

Astronomy

Mar. 10, 2012 Rise Set
Actual Time 6:35 AM MST 6:14 PM MST
Civil Twilight 6:05 AM MST 6:43 PM MST
Nautical Twilight 5:31 AM MST 7:18 PM MST
Astronomical Twilight 4:56 AM MST 7:53 PM MST
Moon 9:44 PM MST (3/10) 7:20 AM MST (3/10)
Length of Visible Light 12h 38m
Length of Day
11h 38m
Waning Gibbous, 92% of the Moon is Illuminated
Mar 10
Waning Gibbous
Mar 14
Last Quarter
Mar 22
New
Mar 30
First Quarter
Apr 6
Full

Hourly Weather History & Observations

Time (MST) Temp. Windchill Dew Point Humidity Pressure Visibility Wind Dir Wind Speed Gust Speed Precip Events Conditions
12:53 AM 51.1 °F - 16.0 °F 25% 29.90 in 10.0 mi WSW 13.8 mph - N/A   Clear
1:53 AM 51.1 °F - 15.1 °F 24% 29.89 in 10.0 mi WSW 17.3 mph - N/A   Clear
2:53 AM 50.0 °F - 14.0 °F 24% 29.86 in 10.0 mi WSW 17.3 mph - N/A   Clear
3:53 AM 48.9 °F - 12.9 °F 24% 29.86 in 10.0 mi WSW 16.1 mph - N/A   Partly Cloudy
4:53 AM 46.0 °F 39.0 °F 12.9 °F 26% 29.86 in 10.0 mi WSW 17.3 mph - N/A   Partly Cloudy
5:53 AM 41.0 °F 33.5 °F 15.1 °F 35% 29.87 in 10.0 mi SW 13.8 mph - N/A   Partly Cloudy
6:53 AM 39.9 °F 30.5 °F 16.0 °F 38% 29.87 in 10.0 mi WSW 19.6 mph - N/A   Partly Cloudy
7:53 AM 39.9 °F 31.1 °F 17.1 °F 40% 29.88 in 10.0 mi SW 17.3 mph - N/A   Clear
8:53 AM 45.0 °F 40.1 °F 17.1 °F 33% 29.86 in 10.0 mi WSW 9.2 mph - N/A   Clear
9:53 AM 52.0 °F - 17.1 °F 25% 29.83 in 10.0 mi SSW 12.7 mph - N/A   Clear
10:53 AM 61.0 °F - 16.0 °F 17% 29.79 in 10.0 mi SSW 15.0 mph 23.0 mph N/A   Clear
11:53 AM 64.9 °F - 15.1 °F 15% 29.75 in 10.0 mi WSW 13.8 mph 25.3 mph N/A   Clear
12:53 PM 66.0 °F - 10.0 °F 11% 29.72 in 10.0 mi SW 18.4 mph - N/A   Clear
1:53 PM 68.0 °F - 9.0 °F 10% 29.69 in 10.0 mi WSW 11.5 mph - N/A   Clear
2:53 PM 69.1 °F - 8.1 °F 9% 29.66 in 10.0 mi WSW 8.1 mph - N/A   Clear
3:53 PM 70.0 °F - 8.1 °F 9% 29.64 in 10.0 mi WSW 8.1 mph - N/A   Clear
4:53 PM 68.0 °F - 8.1 °F 10% 29.64 in 10.0 mi WSW 10.4 mph - N/A   Clear
5:53 PM 64.0 °F - 15.1 °F 15% 29.65 in 10.0 mi WSW 8.1 mph - N/A   Clear
6:53 PM 59.0 °F - 15.1 °F 18% 29.66 in 10.0 mi WSW 6.9 mph - N/A   Clear
7:53 PM 57.0 °F - 17.1 °F 21% 29.67 in 10.0 mi WSW 12.7 mph - N/A   Clear
8:53 PM 55.0 °F - 17.1 °F 23% 29.68 in 10.0 mi SSW 5.8 mph - N/A   Clear
9:53 PM 51.1 °F - 17.1 °F 26% 29.68 in 10.0 mi West 11.5 mph - N/A   Clear
10:53 PM 53.1 °F - 14.0 °F 21% 29.66 in 10.0 mi WSW 12.7 mph - N/A   Clear
11:53 PM 48.0 °F - 12.9 °F 24% 29.65 in 10.0 mi WSW 12.7 mph - N/A   Clear